Regional Weather Roundup
Issued by NWS Little Rock, AR

Home | Current Version | Previous Version | Graphics & Text | Print | Product List | Glossary On
Versions: 1 2 3 4 5 6 7 8 9 10 11 12 13 14 15 16 17 18 19 20 21 22 23 24 25 26 27 28 29 30 31
000
ASUS44 KLZK 191305
RWRLZK

WEATHER ROUNDUP FOR ARKANSAS
NATIONAL WEATHER SERVICE LITTLE ROCK AR
700 AM CST SUN NOV 19 2017

NOTE: "FAIR" INDICATES FEW OR NO CLOUDS BELOW 12,000 FEET WITH NO
SIGNIFICANT WEATHER AND/OR OBSTRUCTIONS TO VISIBILITY.

ARZ001-003-010-029-191400-
NORTHWEST ARKANSAS

CITY           SKY/WX    TMP DP  RH WIND       PRES   REMARKS
FAYETTEVILLE   CLEAR     26  26 100 CALM      30.28R
FORT SMITH     CLEAR     37  32  82 SW5       30.31R
HARRISON       CLEAR     33  27  78 NW6       30.25R WCI  28
BENTONVILLE    CLEAR     32  28  85 CALM      30.30R
ROGERS         PTCLDY    32  28  85 NW5       30.28R WCI  27
SILOAM SPGS    CLEAR     31  28  89 CALM      30.29R
HIGHFILL       CLEAR     33  28  81 NW6       30.29R WCI  28
SPRINGDALE     CLEAR     32  28  86 W5        30.29R WCI  27
$$

ARZ004-005-016-191400-
NORTH CENTRAL ARKANSAS

CITY           SKY/WX    TMP DP  RH WIND       PRES   REMARKS
BATESVILLE     CLEAR     39  26  59 NW5       30.25R
FLIPPIN        CLEAR     36  27  69 W6        30.27R
MTN HOME       CLEAR     35  27  72 N6        30.23  WCI  30
$$

ARZ040-041-191400-
WEST CENTRAL ARKANSAS

CITY           SKY/WX    TMP DP  RH WIND       PRES   REMARKS
MENA           CLEAR     34  34 100 CALM      30.28R
MOUNT IDA      CLEAR     31  30  96 CALM      30.24R
$$

ARZ009-017-025-026-028-191400-
NORTHEAST ARKANSAS

CITY           SKY/WX    TMP DP  RH WIND       PRES   REMARKS
CORNING        FAIR      36  28  75 W8        30.21R
JONESBORO      CLEAR     39  27  62 NW6       30.22R
NEWPORT        CLEAR     38  25  59 NW10      30.24R
WALNUT RIDGE     N/A     34  25  69 NW9       30.23  WCI  27
BLYTHEVILLE    CLEAR     35  31  85 NW7       30.20R WCI  29
$$

ARZ022-023-033-042-044-191400-
CENTRAL ARKANSAS

CITY           SKY/WX    TMP DP  RH WIND       PRES   REMARKS
LITTLE ROCK    CLEAR     40  34  79 NW8       30.28R
N LITTLE ROCK    N/A     40  32  75 NW5       30.29R
JACKSONVILLE   CLEAR     39  28  64 CALM      30.26R
SEARCY         CLEAR     36  30  79 W3        30.26R
HOT SPRINGS    CLEAR     35  34  96 NW3       30.27R
RUSSELLVILLE   PTCLDY    31  30  96 CALM      30.27R
CLINTON        FAIR      34  30  86 CALM      30.27R
$$

ARZ036-191400-
EAST ARKANSAS

CITY           SKY/WX    TMP DP  RH WIND       PRES   REMARKS
WEST MEMPHIS   CLEAR     38  33  82 NW3       30.21R
$$

ARZ050-053-066-070-073-191400-
SOUTHWEST ARKANSAS

CITY           SKY/WX    TMP DP  RH WIND       PRES   REMARKS
ARKADELPHIA    FAIR      29  28  96 CALM      30.29R
CAMDEN         CLEAR     30  28  93 CALM      30.28R
TEXARKANA      CLEAR     39  34  82 NW5       30.29R
EL DORADO      CLEAR     37  35  92 NW8       30.27R
DE QUEEN       FOG       29  29 100 CALM      30.29R VSB 3/4
$$

ARZ056-057-069-191400-
SOUTHEAST ARKANSAS

CITY           SKY/WX    TMP DP  RH WIND       PRES   REMARKS
PINE BLUFF     PTCLDY    38  32  79 W7        30.27R
STUTTGART      PTCLDY    41  32  70 NW13      30.26R
MONTICELLO     PTCLDY    41  32  70 NW6       30.25R

$$






USA.gov is the U.S. government's official web portal to all federal, state and local government web resources and services.